Change the Weather History Date:

Thursday, May 15, 2014

  Actual Average Record
Temperature  
Mean Temperature 50 °F 63 °F  
Max Temperature 57 °F 72 °F 93 °F (1944)
Min Temperature 42 °F 53 °F 35 °F (1959)
Degree Days  
Heating Degree Days 15 4  
Month to date heating degree days 85 88  
Since 1 July heating degree days 6208 5518  
Cooling Degree Days 0 2  
Month to date cooling degree days 43 20  
Year to date cooling degree days 47 38  
Moisture  
Dew Point 40 °F    
Average Humidity 67    
Maximum Humidity 89    
Minimum Humidity 45    
Precipitation  
Precipitation 0.01 in 0.14 in 2.59 in (2009)
Month to date precipitation 1.83 2.09  
Year to date precipitation 8.08 11.64  
Sea Level Pressure  
Sea Level Pressure 30.05 in    
Wind  
Wind Speed 10 mph (WNW)    
Max Wind Speed 22 mph    
Max Gust Speed 27 mph    
Visibility 10 miles    
Events Rain    
T = Trace of Precipitation, MM = Missing Value Source: NWS Daily Summary

Daily Weather History Graph

Daily Weather History Graph

Search for Another Location

Airport or City:

Trip Planner

Search our weather history database for the weather conditions in past years. The results will help you decide how hot, cold, wet, or windy it might be!

Date:

Astronomy

May. 15, 2014 Rise Set
Actual Time 5:49 AM CDT 8:13 PM CDT
Civil Twilight 5:19 AM CDT 8:43 PM CDT
Nautical Twilight 4:41 AM CDT 9:21 PM CDT
Astronomical Twilight 3:59 AM CDT 10:03 PM CDT
Moon 9:21 PM CDT (5/15) 6:36 AM CDT (5/15)
Length of Visible Light 15h 24m
Length of Day
14h 23m
Full, 99% of the Moon is Illuminated
May 15
Full
May 21
Last Quarter
May 28
New
Jun 5
First Quarter
Jun 12
Full

Hourly Weather History & Observations

Time (CDT) Temp. Windchill Dew Point Humidity Pressure Visibility Wind Dir Wind Speed Gust Speed Precip Events Conditions
12:54 AM 46.9 °F - 43.0 °F 86% 30.07 in 9.0 mi SSW 5.8 mph - N/A   Mostly Cloudy
1:54 AM 46.9 °F - 43.0 °F 86% 30.06 in 9.0 mi Calm Calm - N/A   Overcast
2:54 AM 46.0 °F 44.8 °F 43.0 °F 89% 30.04 in 7.0 mi SW 3.5 mph - N/A   Mostly Cloudy
3:54 AM 46.0 °F 44.8 °F 43.0 °F 89% 30.03 in 7.0 mi SW 3.5 mph - N/A   Scattered Clouds
4:54 AM 45.0 °F 42.6 °F 41.0 °F 86% 30.01 in 10.0 mi WSW 4.6 mph - N/A   Clear
5:54 AM 46.0 °F 43.9 °F 39.0 °F 76% 30.02 in 10.0 mi West 4.6 mph - N/A   Clear
6:54 AM 46.9 °F - 39.0 °F 74% 30.04 in 10.0 mi WNW 8.1 mph - N/A   Clear
7:54 AM 48.9 °F - 41.0 °F 74% 30.05 in 10.0 mi WNW 11.5 mph - N/A   Clear
8:54 AM 50.0 °F - 42.1 °F 74% 30.05 in 10.0 mi NW 12.7 mph - N/A   Mostly Cloudy
9:54 AM 51.1 °F - 41.0 °F 68% 30.05 in 10.0 mi NW 11.5 mph - N/A   Overcast
10:54 AM 50.0 °F - 42.1 °F 74% 30.06 in 10.0 mi NW 11.5 mph - 0.00 in Rain Light Rain
11:54 AM 50.0 °F - 42.1 °F 74% 30.06 in 10.0 mi WNW 5.8 mph - 0.00 in   Overcast
12:54 PM 50.0 °F - 44.1 °F 80% 30.06 in 10.0 mi WNW 8.1 mph - 0.01 in   Overcast
1:06 PM 50.0 °F - 43.0 °F 77% 30.04 in 10.0 mi WNW 9.2 mph - N/A   Overcast
1:50 PM 48.2 °F - 44.6 °F 87% 30.04 in 10.0 mi NW 17.3 mph - N/A   Overcast
2:54 PM 52.0 °F - 42.1 °F 69% 30.04 in 10.0 mi NW 13.8 mph - N/A   Overcast
3:30 PM 53.1 °F - 39.0 °F 59% 30.03 in 10.0 mi WNW 16.1 mph - N/A   Mostly Cloudy
3:54 PM 54.0 °F - 39.9 °F 59% 30.03 in 10.0 mi NW 13.8 mph - N/A   Mostly Cloudy
4:54 PM 55.9 °F - 39.0 °F 53% 30.02 in 10.0 mi NW 11.5 mph - N/A   Mostly Cloudy
5:54 PM 54.0 °F - 33.1 °F 45% 30.03 in 10.0 mi WNW 17.3 mph 21.9 mph N/A   Mostly Cloudy
6:54 PM 53.1 °F - 32.0 °F 45% 30.04 in 10.0 mi WNW 12.7 mph - N/A   Mostly Cloudy
7:54 PM 50.0 °F - 34.0 °F 54% 30.05 in 10.0 mi WNW 21.9 mph 27.6 mph 0.00 in   Mostly Cloudy
8:54 PM 46.9 °F - 35.1 °F 63% 30.07 in 10.0 mi WNW 11.5 mph - N/A   Mostly Cloudy
9:54 PM 45.0 °F 40.6 °F 35.1 °F 68% 30.08 in 10.0 mi WNW 8.1 mph - N/A   Clear
10:54 PM 44.1 °F 40.1 °F 36.0 °F 73% 30.08 in 10.0 mi West 6.9 mph - N/A   Clear
11:54 PM 43.0 °F 36.8 °F 37.0 °F 80% 30.06 in 10.0 mi WNW 11.5 mph - N/A   Clear